Weather History for KTCM - April, 2012

Change the Weather History Date:

Thursday, April 26, 2012

  Actual Average Record
Temperature  
Mean Temperature 49 °F -  
Max Temperature 55 °F 58 °F 80 °F (2004)
Min Temperature 40 °F 38 °F 28 °F (2008)
Degree Days  
Heating Degree Days 16    
Moisture  
Dew Point 45 °F    
Average Humidity 89    
Maximum Humidity 100    
Minimum Humidity 51    
Precipitation  
Precipitation 0.26 in - - ()
Sea Level Pressure  
Sea Level Pressure 29.74 in    
Wind  
Wind Speed 7 mph (SW)    
Max Wind Speed 22 mph    
Max Gust Speed 30 mph    
Visibility 9 miles    
Events Rain    
Averages and records for this station are not official NWS values.
T = Trace of Precipitation, MM = Missing Value Source: NWS Daily Summary

Daily Weather History Graph

Daily Weather History Graph

Search for Another Location

Airport or City:

Trip Planner

Search our weather history database for the weather conditions in past years. The results will help you decide how hot, cold, wet, or windy it might be!

Date:

Astronomy

Apr. 26, 2012 Rise Set
Actual Time 6:01 AM PDT 8:14 PM PDT
Civil Twilight 5:27 AM PDT 8:48 PM PDT
Nautical Twilight 4:46 AM PDT 9:30 PM PDT
Astronomical Twilight 3:59 AM PDT 10:17 PM PDT
Moon 9:37 AM PDT (4/26) 12:32 AM PDT (4/26)
Length of Visible Light 15h 20m
Length of Day
14h 13m
Waxing Crescent, 25% of the Moon is Illuminated
Apr 26
Waxing Crescent
Apr 29
First Quarter
May 5
Full
May 12
Last Quarter
May 20
New

Hourly Weather History & Observations

Time (PDT) Temp. Windchill Dew Point Humidity Pressure Visibility Wind Dir Wind Speed Gust Speed Precip Events Conditions
12:54 AM 50.0 °F - 50.0 °F 100% 29.66 in 10.0 mi SW 4.6 mph - N/A Rain Light Rain
12:55 AM 49.6 °F - 49.1 °F 98% 29.66 in 10.0 mi SW 4.6 mph - 0.01 in Rain Light Rain
1:00 AM 50.0 °F - 50.0 °F 100% 29.66 in 10.0 mi SW 4.6 mph - N/A Rain Light Rain
1:11 AM 50.0 °F - 50.0 °F 100% 29.65 in 10.0 mi Calm Calm - N/A Rain Light Rain
1:12 AM 50.0 °F - 50.0 °F 100% 29.65 in 10.0 mi Calm Calm - N/A Rain Light Rain
1:14 AM 50.0 °F - 50.0 °F 100% 29.65 in 10.0 mi Calm Calm - N/A Rain Light Rain
1:16 AM 50.0 °F - 50.0 °F 100% 29.65 in 10.0 mi Calm Calm - N/A Rain Light Rain
1:18 AM 50.0 °F - 50.0 °F 100% 29.65 in 10.0 mi Calm Calm - N/A Rain Light Rain
1:33 AM 50.0 °F - 50.0 °F 100% 29.65 in 10.0 mi Calm Calm - N/A Rain Light Rain
1:55 AM 49.3 °F - 49.1 °F 99% 29.65 in 10.0 mi Calm Calm - 0.02 in Rain Light Rain
2:55 AM 49.3 °F - 49.1 °F 99% 29.64 in 10.0 mi SE 3.5 mph - 0.03 in Rain Light Rain
3:44 AM 50.0 °F - 48.2 °F 94% 29.63 in 10.0 mi Calm Calm - N/A   Overcast
3:55 AM 49.1 °F - 48.9 °F 99% 29.63 in 10.0 mi Calm Calm - 0.03 in   Overcast
4:06 AM 48.2 °F - 48.2 °F 100% 29.63 in 10.0 mi Calm Calm - N/A Rain Light Rain
4:19 AM 48.2 °F - 48.2 °F 100% 29.63 in 10.0 mi Calm Calm - N/A   Partly Cloudy
4:53 AM 48.2 °F - 48.2 °F 100% 29.63 in 10.0 mi Calm Calm - N/A Rain Light Rain
4:55 AM 48.7 °F - 48.6 °F 99% 29.63 in 10.0 mi Calm Calm - 0.00 in Rain Light Rain
5:12 AM 48.2 °F - 48.2 °F 100% 29.63 in 10.0 mi Calm Calm - N/A   Mostly Cloudy
5:40 AM 48.2 °F - 48.2 °F 100% 29.62 in 10.0 mi Calm Calm - N/A   Overcast
5:51 AM 48.2 °F - 48.2 °F 100% 29.63 in 10.0 mi West 4.6 mph - N/A   Overcast
5:55 AM 48.9 °F - 48.6 °F 99% 29.63 in 10.0 mi WSW 12.7 mph - 0.00 in   Overcast
5:57 AM 48.2 °F - 48.2 °F 100% 29.63 in 10.0 mi West 13.8 mph - N/A   Overcast
6:00 AM 48.2 °F - 48.2 °F 100% 29.63 in 10.0 mi West 10.4 mph - N/A   Light Drizzle
6:02 AM 48.2 °F - 48.2 °F 100% 29.63 in 9.0 mi West 11.5 mph - N/A   Light Drizzle
6:08 AM 46.4 °F 40.7 °F 46.4 °F 100% 29.63 in 8.0 mi West 12.7 mph - N/A   Light Drizzle
6:15 AM 46.4 °F 41.5 °F 46.4 °F 100% 29.63 in 9.0 mi West 10.4 mph - N/A   Light Drizzle
6:23 AM 46.4 °F 41.5 °F 46.4 °F 100% 29.63 in 5.0 mi West 10.4 mph - N/A   Light Drizzle
6:39 AM 46.4 °F 42.4 °F 46.4 °F 100% 29.63 in 8.0 mi West 8.1 mph - N/A   Overcast
6:55 AM 46.2 °F 42.2 °F 46.0 °F 99% 29.64 in 10.0 mi West 8.1 mph - 0.01 in   Overcast
6:58 AM 46.4 °F 42.4 °F 46.4 °F 100% 29.64 in 10.0 mi West 8.1 mph - N/A   Overcast
7:09 AM 46.4 °F 41.9 °F 46.4 °F 100% 29.65 in 9.0 mi WSW 9.2 mph - N/A   Overcast
7:10 AM 46.4 °F 41.5 °F 46.4 °F 100% 29.64 in 9.0 mi WSW 10.4 mph - N/A   Overcast
7:11 AM 46.4 °F 41.9 °F 46.4 °F 100% 29.64 in 8.0 mi WSW 9.2 mph - N/A   Light Drizzle
7:19 AM 46.4 °F 42.4 °F 46.4 °F 100% 29.64 in 4.0 mi SW 8.1 mph - N/A   Light Drizzle
7:20 AM 46.4 °F 41.9 °F 46.4 °F 100% 29.64 in 4.0 mi WSW 9.2 mph - N/A   Light Drizzle
7:22 AM 46.4 °F 42.9 °F 46.4 °F 100% 29.65 in 3.0 mi WSW 6.9 mph - N/A   Light Drizzle
7:25 AM 46.4 °F 41.9 °F 46.4 °F 100% 29.65 in 2.5 mi WSW 9.2 mph - N/A   Light Drizzle
7:33 AM 46.4 °F 41.9 °F 46.4 °F 100% 29.65 in 3.0 mi WSW 9.2 mph - N/A   Light Drizzle
7:55 AM 46.4 °F 41.1 °F 45.5 °F 97% 29.65 in 8.0 mi WSW 11.5 mph - 0.01 in Rain Light Rain
7:59 AM 46.4 °F 41.9 °F 44.6 °F 93% 29.65 in 8.0 mi WSW 9.2 mph - N/A Rain Light Rain
8:03 AM 46.4 °F 41.9 °F 44.6 °F 93% 29.65 in 10.0 mi WSW 9.2 mph - N/A Rain Light Rain
8:10 AM 46.4 °F 41.5 °F 44.6 °F 93% 29.65 in 10.0 mi WSW 10.4 mph - N/A   Overcast
8:13 AM 46.4 °F 41.5 °F 44.6 °F 93% 29.65 in 10.0 mi WSW 10.4 mph - N/A Rain Light Rain
8:14 AM 46.4 °F 41.1 °F 44.6 °F 93% 29.65 in 10.0 mi WSW 11.5 mph - N/A Rain Light Rain
8:48 AM 46.4 °F 42.4 °F 44.6 °F 93% 29.66 in 10.0 mi SW 8.1 mph - N/A   Overcast
8:55 AM 46.8 °F - 43.7 °F 89% 29.66 in 10.0 mi SW 9.2 mph - 0.00 in   Overcast
9:28 AM 48.2 °F - 44.6 °F 87% 29.68 in 10.0 mi SSW 9.2 mph - N/A Rain Light Rain
9:42 AM 48.2 °F - 44.6 °F 87% 29.68 in 10.0 mi South 9.2 mph - N/A   Overcast
9:46 AM 48.2 °F - 46.4 °F 93% 29.68 in 10.0 mi South 8.1 mph - N/A Rain Light Rain
9:55 AM 48.2 °F - 45.5 °F 90% 29.68 in 10.0 mi South 9.2 mph - 0.00 in Rain Light Rain
9:56 AM 48.2 °F - 46.4 °F 93% 29.68 in 10.0 mi SSW 9.2 mph - N/A   Overcast
10:03 AM 48.2 °F - 44.6 °F 87% 29.69 in 10.0 mi SSW 9.2 mph - N/A   Overcast
10:11 AM 48.2 °F - 44.6 °F 87% 29.69 in 10.0 mi SSW 9.2 mph - N/A   Mostly Cloudy
10:13 AM 48.2 °F - 46.4 °F 93% 29.69 in 10.0 mi South 9.2 mph - N/A   Mostly Cloudy
10:46 AM 50.0 °F - 44.6 °F 82% 29.71 in 10.0 mi SSW 6.9 mph - N/A   Overcast
10:55 AM 49.6 °F - 44.1 °F 81% 29.70 in 10.0 mi South 8.1 mph - N/A   Overcast
11:02 AM 50.0 °F - 44.6 °F 82% 29.71 in 10.0 mi SSW 8.1 mph - N/A   Overcast
11:07 AM 50.0 °F - 44.6 °F 82% 29.71 in 10.0 mi SW 6.9 mph - N/A   Overcast
11:16 AM 50.0 °F - 44.6 °F 82% 29.72 in 10.0 mi SSW 12.7 mph - N/A   Overcast
11:17 AM 50.0 °F - 44.6 °F 82% 29.72 in 10.0 mi SW 13.8 mph - N/A Rain Light Rain
11:50 AM 50.0 °F - 44.6 °F 82% 29.73 in 10.0 mi SSW 12.7 mph - N/A Rain Light Rain
11:51 AM 50.0 °F - 44.6 °F 82% 29.73 in 10.0 mi SSW 12.7 mph - N/A Rain Light Rain
11:55 AM 48.9 °F - 43.9 °F 83% 29.73 in 10.0 mi SW 13.8 mph - 0.00 in Rain Light Rain
12:00 PM 48.2 °F - 42.8 °F 82% 29.73 in 10.0 mi SW 9.2 mph - N/A Rain Light Rain
12:03 PM 48.2 °F - 44.6 °F 87% 29.73 in 10.0 mi SSW 9.2 mph - N/A Rain Light Rain
12:04 PM 48.2 °F - 44.6 °F 87% 29.73 in 10.0 mi SSW 8.1 mph - N/A Rain Light Rain
12:05 PM 48.2 °F - 44.6 °F 87% 29.73 in 10.0 mi SSW 9.2 mph - N/A Rain Light Rain
12:07 PM 48.2 °F - 44.6 °F 87% 29.74 in 10.0 mi SSW 9.2 mph - N/A Rain Light Rain
12:09 PM 48.2 °F - 44.6 °F 87% 29.74 in 10.0 mi SSW 10.4 mph - N/A Rain Light Rain
12:11 PM 48.2 °F - 44.6 °F 87% 29.74 in 10.0 mi SSW 10.4 mph - N/A   Overcast
12:33 PM 48.2 °F - 44.6 °F 87% 29.76 in 6.0 mi WSW 21.9 mph 27.6 mph N/A Rain Light Rain
12:38 PM 46.4 °F 40.4 °F 42.8 °F 87% 29.76 in 4.0 mi WSW 13.8 mph 27.6 mph N/A Rain Rain
12:40 PM 46.4 °F 41.5 °F 42.8 °F 87% 29.76 in 4.0 mi WSW 10.4 mph 27.6 mph N/A Rain Light Rain
12:45 PM 46.4 °F 41.5 °F 42.8 °F 87% 29.76 in 6.0 mi SW 10.4 mph - N/A Rain Light Rain
12:51 PM 46.4 °F 41.5 °F 42.8 °F 87% 29.75 in 10.0 mi SW 10.4 mph - N/A   Overcast
12:55 PM 47.1 °F - 43.3 °F 87% 29.76 in 10.0 mi SW 10.4 mph - 0.02 in   Overcast
1:55 PM 52.5 °F - 43.0 °F 70% 29.77 in 10.0 mi SSW 13.8 mph - N/A   Mostly Cloudy
2:08 PM 51.8 °F - 42.8 °F 71% 29.77 in 10.0 mi SSW 8.1 mph - N/A Rain Light Rain
2:19 PM 51.8 °F - 42.8 °F 71% 29.78 in 10.0 mi South 5.8 mph - N/A   Mostly Cloudy
2:55 PM 55.4 °F - 39.6 °F 55% 29.79 in 10.0 mi WSW 18.4 mph 26.5 mph 0.00 in   Mostly Cloudy
3:55 PM 54.1 °F - 36.5 °F 51% 29.81 in 10.0 mi WSW 8.1 mph - N/A   Scattered Clouds
4:13 PM 53.6 °F - 37.4 °F 54% 29.82 in 10.0 mi West 9.2 mph - N/A Rain Light Rain
4:24 PM 55.4 °F - 37.4 °F 51% 29.82 in 10.0 mi WNW 13.8 mph - N/A   Mostly Cloudy
4:39 PM 51.8 °F - 41.0 °F 67% 29.84 in 7.0 mi SW 20.7 mph 29.9 mph N/A Rain Rain
4:55 PM 48.6 °F - 40.8 °F 75% 29.85 in 10.0 mi SW 11.5 mph - 0.02 in Rain Light Rain
5:02 PM 50.0 °F - 42.8 °F 76% 29.85 in 10.0 mi SW 13.8 mph 18.4 mph N/A   Overcast
5:55 PM 52.0 °F - 41.4 °F 67% 29.87 in 10.0 mi SW 11.5 mph 20.7 mph 0.00 in   Scattered Clouds
6:10 PM 50.0 °F - 41.0 °F 71% 29.88 in 10.0 mi WSW 10.4 mph - N/A   Mostly Cloudy
6:45 PM 50.0 °F - 41.0 °F 71% 29.90 in 4.0 mi West 16.1 mph 26.5 mph N/A Rain Light Rain
6:53 PM 46.4 °F 42.4 °F 39.2 °F 76% 29.91 in 3.0 mi SSW 8.1 mph 26.5 mph N/A Rain Light Rain
6:55 PM 46.4 °F 41.9 °F 40.5 °F 80% 29.91 in 7.0 mi SSW 9.2 mph - 0.03 in Rain Light Rain
7:10 PM 46.4 °F 42.4 °F 41.0 °F 81% 29.91 in 10.0 mi SSW 8.1 mph - N/A   Overcast
7:16 PM 46.4 °F 41.9 °F 42.8 °F 87% 29.91 in 10.0 mi South 9.2 mph - N/A Rain Light Rain
7:39 PM 46.4 °F 41.5 °F 42.8 °F 87% 29.92 in 10.0 mi South 10.4 mph - N/A   Mostly Cloudy
7:55 PM 45.1 °F 42.0 °F 42.6 °F 91% 29.93 in 10.0 mi South 5.8 mph - 0.00 in   Mostly Cloudy
8:15 PM 44.6 °F 42.2 °F 42.8 °F 93% 29.94 in 10.0 mi SSE 4.6 mph - N/A Rain Light Rain
8:55 PM 44.8 °F 39.4 °F 40.6 °F 85% 29.97 in 10.0 mi SSW 10.4 mph 20.7 mph 0.05 in Rain Light Rain
9:00 PM 44.6 °F 40.2 °F 41.0 °F 87% 29.97 in 10.0 mi SSW 8.1 mph - N/A   Overcast
9:06 PM 44.6 °F 39.2 °F 41.0 °F 87% 29.98 in 10.0 mi SSW 10.4 mph - N/A Rain Light Rain
9:32 PM 44.6 °F 39.2 °F 41.0 °F 87% 30.00 in 10.0 mi South 10.4 mph - N/A   Overcast
9:55 PM 43.9 °F 39.9 °F 42.1 °F 93% 30.00 in 10.0 mi South 6.9 mph - 0.01 in   Overcast
9:56 PM 44.6 °F 40.7 °F 42.8 °F 93% 30.00 in 10.0 mi South 6.9 mph - N/A Rain Light Rain
10:34 PM 44.6 °F 39.7 °F 41.0 °F 87% 30.03 in 10.0 mi SSW 9.2 mph - N/A   Mostly Cloudy
10:37 PM 44.6 °F 40.2 °F 41.0 °F 87% 30.03 in 10.0 mi South 8.1 mph - N/A Rain Light Rain
10:48 PM 44.6 °F 39.2 °F 42.8 °F 93% 30.03 in 10.0 mi South 10.4 mph - N/A   Scattered Clouds
10:55 PM 43.5 °F 38.9 °F 42.1 °F 95% 30.04 in 10.0 mi South 8.1 mph - 0.02 in   Scattered Clouds
11:55 PM 40.6 °F 35.4 °F 39.7 °F 97% 30.07 in 10.0 mi South 8.1 mph - N/A   Scattered Clouds